Regional Weather Roundup
Issued by NWS State College, PA

Home | Current Version | Previous Version | Graphics & Text | Print | Product List | Glossary Off
Versions: 1 2 3 4 5 6 7 8 9 10 11 12 13 14 15 16 17 18 19 20 21 22 23 24 25 26 27 28 29 30 31 32 33 34 35 36 37 38 39 40 41 42 43 44 45 46 47 48 49 50

000
ASUS41 KCTP 232010
RWRCTP

REGIONAL WEATHER ROUNDUP
NATIONAL WEATHER SERVICE STATE COLLEGE PA
400 PM EDT SAT MAY 23 2015

Note: "fair" indicates few or no clouds below 12,000 feet with no
significant weather and/or obstructions to visibility.

* = STATION THAT DOES NOT REPORT PRECIPITATION /E.G. RAIN...SNOW...ETC/
    THUNDER OR FOG.

PAZ002>004-007>009-013>016-020>023-029>032-232100-
WESTERN PENNSYLVANIA

CITY           SKY/WX    TMP DP  RH WIND       PRES   REMARKS
ERIE           SUNNY     65  28  24 W10       30.39F
MEADVILLE      SUNNY     67  31  26 W10       30.39F
FRANKLIN*      SUNNY     66  34  30 W8        30.40F
NEW CASTLE     FAIR      72  35  25 W5        30.39F
BEAVER COUNTY  SUNNY     70  34  26 W7        30.39F
BUTLER*        SUNNY     70  34  26 W7        30.41F
PITTSBURGH INT MOSUNNY   72  33  24 NW8       30.38F
PITTSBURGH     SUNNY     69  30  23 SW9       30.38F
INDIANA*       SUNNY     68  37  32 W3G12     30.43F
LATROBE        SUNNY     68  32  26 W12       30.41F
WASHINGTON CO* SUNNY     72  39  30 SW5       30.40F
$$

PAZ004>006-010>012-017>019-024>028-033>037-041-042-045-046-049>053-232100-
CENTRAL PENNSYLVANIA

CITY           SKY/WX    TMP DP  RH WIND       PRES   REMARKS
BRADFORD       SUNNY     65  23  20 W8        30.37F
DUBOIS         SUNNY     67  27  22 W9        30.38F
CLEARFIELD     SUNNY     67  29  24 SW9       30.38F
JOHNSTOWN      SUNNY     65  29  25 NW9       30.39F
ALTOONA        SUNNY     69  23  17 VRB3      30.38F
STATE COLLEGE  SUNNY     70  27  19 W10       30.37F
WILLIAMSPORT   SUNNY     69  26  20 W9        30.35F
SELINSGROVE    SUNNY     70  35  27 VRB7      30.37F
FT INDIANTOWN  SUNNY     68  29  24 VRB7      30.38F
CAPITAL CITY   SUNNY     69  28  21 CALM      30.38F
HARRISBURG     MOSUNNY   69  29  22 NW6       30.37F
YORK           SUNNY     68  36  30 VRB3      30.38F
$$

PAZ038>040-043-044-047-048-054-055-060>062-067>071-232100-
EASTERN PENNSYLVANIA

CITY           SKY/WX    TMP DP  RH WIND       PRES   REMARKS
SCRANTON       SUNNY     67  26  21 NW5       30.36F
MOUNT POCONO   SUNNY     63  22  20 W14       30.36F
ALLENTOWN      SUNNY     69  25  19 W8        30.37F
QUAKERTOWN*    CLEAR     66  27  22 W3        30.38F
READING        SUNNY     69  25  19 SW9       30.37F
LANCASTER      SUNNY     67  32  27 W9        30.38F
COATESVILLE    CLEAR     64  28  25 NW5       30.40S
POTTSTOWN      SUNNY     67  27  22 VRB6      30.39F
BLUE BELL      SUNNY     70  28  21 NW8       30.38F
DOYLESTOWN     SUNNY     66  24  20 VRB5      30.37F
WILLOW GROVE   NOT AVBL
NORTH PHILA    SUNNY     70  26  19 W8        30.39F
PHILADELPHIA   SUNNY     69  28  21 SW12      30.39F
$$


USA.gov is the U.S. government's official web portal to all federal, state and local government web resources and services.